This is the latest recevied weather packets stored in our database for station/object DG2GGP-11. If no packets are shown the sender has not sent any weather packets the latest 10 day(s).
| Time | Temp. | Humidity | Pressure | Rain* | Wind** | Luminosity | Snow |
|---|---|---|---|---|---|---|---|
| 1777678157 | 5.56° C | 73% | 1024.8 hPa | 0 mm | - | 0 W/m² | - |
| 1777677557 | 5.56° C | 72% | 1024.8 hPa | 0 mm | - | 0 W/m² | - |
| 1777676957 | 6.11° C | 72% | 1024.7 hPa | 0 mm | - | 0 W/m² | - |
| 1777676357 | 6.11° C | 71% | 1024.8 hPa | 0 mm | - | 0 W/m² | - |
| 1777675757 | 6.11° C | 71% | 1024.8 hPa | 0 mm | - | 0 W/m² | - |
| 1777675157 | 6.67° C | 71% | 1024.8 hPa | 0 mm | - | 0 W/m² | - |
| 1777674557 | 6.67° C | 70% | 1024.9 hPa | 0 mm | - | 0 W/m² | - |
| 1777673957 | 6.67° C | 69% | 1024.8 hPa | 0 mm | - | 0 W/m² | - |
| 1777673357 | 7.22° C | 69% | 1024.8 hPa | 0 mm | - | 0 W/m² | - |
| 1777672757 | 7.22° C | 68% | 1024.9 hPa | 0 mm | - | 0 W/m² | - |
| 1777672157 | 7.22° C | 68% | 1024.8 hPa | 0 mm | - | 0 W/m² | - |
| 1777671557 | 7.78° C | 67% | 1024.8 hPa | 0 mm | - | 0 W/m² | - |
| 1777670957 | 7.78° C | 66% | 1024.7 hPa | 0 mm | - | 0 W/m² | - |
| 1777670357 | 7.78° C | 66% | 1024.8 hPa | 0 mm | - | 0 W/m² | - |
| 1777669757 | 8.33° C | 65% | 1024.8 hPa | 0 mm | - | 0 W/m² | - |
| 1777669157 | 8.33° C | 65% | 1024.7 hPa | 0 mm | - | 0 W/m² | - |
| 1777668557 | 8.33° C | 64% | 1024.8 hPa | 0 mm | - | 0 W/m² | - |
| 1777667957 | 8.89° C | 63% | 1024.8 hPa | 0 mm | - | 0 W/m² | - |
| 1777667357 | 9.44° C | 62% | 1024.8 hPa | 0 mm | - | 0 W/m² | - |
| 1777666757 | 9.44° C | 62% | 1024.8 hPa | 0 mm | - | 0 W/m² | - |
| 1777666157 | 10° C | 61% | 1024.8 hPa | 0 mm | - | 0 W/m² | - |
| 1777665557 | 10.56° C | 60% | 1024.6 hPa | 0 mm | - | 0 W/m² | - |
| 1777664957 | 10.56° C | 58% | 1024.6 hPa | 0 mm | - | 0 W/m² | - |
| 1777664357 | 11.11° C | 57% | 1024.5 hPa | 0 mm | - | 0 W/m² | - |
| 1777663757 | 12.22° C | 55% | 1024.4 hPa | 0 mm | - | 0 W/m² | - |
* Rain latest hour (hover to see other rain measurements)
** Current wind speed in m/s (hover to see current wind gust speed)